Alpine, TX

7:58 PM CDT on July 24, 2017 (GMT -0500)
Alpine

Weather History for KE38 - January, 2014

Change the Weather History Date:

Saturday, January 25, 2014

  Actual Average (KMRF) Record (KMRF)
Temperature  
Mean Temperature 54 °F -  
Max Temperature 67 °F 58 °F 73 °F (1999)
Min Temperature 41 °F 27 °F 17 °F (2002)
Degree Days  
Heating Degree Days 11    
Growing Degree Days 4 (Base 50)    
Moisture  
Dew Point 19 °F    
Average Humidity 28    
Maximum Humidity 45    
Minimum Humidity 14    
Precipitation  
Precipitation 0.00 in - - ()
Sea Level Pressure  
Sea Level Pressure 30.26 in    
Wind  
Wind Speed 12 mph (WSW)    
Max Wind Speed 21 mph    
Max Gust Speed 26 mph    
Visibility 10 miles    
Events      
Averages and records for this station are not official NWS values.
T = Trace of Precipitation, MM = Missing Value Source: NWS Daily Summary

Daily Weather History Graph

Daily Weather History Graph

Search for Another Location

Airport or City:

Trip Planner

Search our weather history database for the weather conditions in past years. The results will help you decide how hot, cold, wet, or windy it might be!

Date:

Astronomy

Jan. 25, 2014 Rise Set
Actual Time 7:49 AM CST 6:25 PM CST
Civil Twilight 7:23 AM CST 6:50 PM CST
Nautical Twilight 6:54 AM CST 7:19 PM CST
Astronomical Twilight 6:26 AM CST 7:48 PM CST
Moon 2:25 AM CST 1:27 PM CST
Length of Visible Light 11h 27m
Length of Day
10h 36m
Waning Crescent, 34% of the Moon is Illuminated
Jan 25
Waning Crescent
Jan 30
New
Feb 6
First Quarter
Feb 14
Full
Feb 22
Last Quarter

Hourly Weather History & Observations

Time (CST) Temp. Windchill Dew Point Humidity Pressure Visibility Wind Dir Wind Speed Gust Speed Precip Events Conditions
12:15 AM 42.3 °F 35.1 °F 12.9 °F 30% 30.36 in 10.0 mi SW 13.8 mph - N/A   Clear
12:35 AM 43.2 °F 34.5 °F 12.7 °F 29% 30.35 in 10.0 mi SW 20.7 mph - N/A   Clear
12:55 AM 42.8 °F 34.5 °F 12.2 °F 29% 30.35 in 10.0 mi SW 18.4 mph - N/A   Scattered Clouds
1:15 AM 42.8 °F 35.1 °F 12.2 °F 29% 30.35 in 10.0 mi SW 16.1 mph - N/A   Mostly Cloudy
1:35 AM 42.3 °F 35.9 °F 12.2 °F 29% 30.34 in 10.0 mi SW 11.5 mph - N/A   Mostly Cloudy
1:55 AM 42.6 °F 36.8 °F 12.4 °F 29% 30.34 in 10.0 mi SW 10.4 mph - N/A   Mostly Cloudy
2:15 AM 45.3 °F 41.6 °F 12.7 °F 27% 30.34 in 10.0 mi WSW 6.9 mph - N/A   Overcast
2:35 AM 44.6 °F 41.4 °F 12.9 °F 28% 30.34 in 10.0 mi SW 5.8 mph - N/A   Overcast
2:55 AM 44.2 °F 41.8 °F 12.7 °F 28% 30.34 in 10.0 mi SSW 4.6 mph - N/A   Overcast
3:15 AM 45.0 °F - 12.2 °F 27% 30.34 in 10.0 mi Calm Calm - N/A   Overcast
3:35 AM 45.7 °F 39.8 °F 12.2 °F 26% 30.32 in 10.0 mi WSW 12.7 mph 16.1 mph N/A   Overcast
3:55 AM 44.8 °F 39.0 °F 12.0 °F 27% 30.32 in 10.0 mi WSW 11.5 mph - N/A   Mostly Cloudy
4:15 AM 43.2 °F 37.9 °F 11.8 °F 28% 30.32 in 10.0 mi WSW 9.2 mph - N/A   Mostly Cloudy
4:35 AM 43.0 °F 37.7 °F 12.2 °F 29% 30.32 in 10.0 mi WSW 9.2 mph - N/A   Overcast
4:55 AM 43.2 °F 38.4 °F 12.2 °F 28% 30.32 in 10.0 mi SW 8.1 mph - N/A   Overcast
5:15 AM 41.2 °F 36.6 °F 12.0 °F 30% 30.32 in 10.0 mi WSW 6.9 mph - N/A   Scattered Clouds
5:35 AM 41.7 °F 36.1 °F 11.8 °F 30% 30.32 in 10.0 mi WSW 9.2 mph - N/A   Clear
5:55 AM 41.5 °F 37.8 °F 11.8 °F 30% 30.31 in 10.0 mi SW 5.8 mph - N/A   Clear
6:15 AM 41.2 °F 36.6 °F 12.2 °F 31% 30.31 in 10.0 mi WSW 6.9 mph - N/A   Mostly Cloudy
6:35 AM 42.3 °F 35.9 °F 12.0 °F 29% 30.31 in 10.0 mi SW 11.5 mph - N/A   Scattered Clouds
6:55 AM 41.5 °F 35.9 °F 12.0 °F 30% 30.31 in 10.0 mi WSW 9.2 mph - N/A   Scattered Clouds
7:15 AM 43.9 °F 37.9 °F 12.0 °F 27% 30.32 in 10.0 mi WSW 11.5 mph - N/A   Mostly Cloudy
7:35 AM 44.6 °F 39.2 °F 11.8 °F 27% 30.32 in 10.0 mi WSW 10.4 mph - N/A   Overcast
7:55 AM 44.8 °F 41.6 °F 11.1 °F 26% 30.32 in 10.0 mi WSW 5.8 mph - N/A   Overcast
8:15 AM 44.6 °F 38.1 °F 10.9 °F 26% 30.32 in 10.0 mi SW 13.8 mph - N/A   Mostly Cloudy
8:35 AM 45.1 °F 39.1 °F 11.1 °F 25% 30.32 in 10.0 mi SW 12.7 mph - N/A   Mostly Cloudy
8:55 AM 46.0 °F 39.9 °F 10.8 °F 24% 30.32 in 10.0 mi SW 13.8 mph 17.3 mph N/A   Mostly Cloudy
9:15 AM 46.9 °F - 10.4 °F 23% 30.32 in 10.0 mi WSW 13.8 mph - N/A   Scattered Clouds
9:35 AM 46.9 °F - 11.1 °F 24% 30.32 in 10.0 mi WSW 18.4 mph - N/A   Mostly Cloudy
9:55 AM 48.4 °F - 10.9 °F 22% 30.33 in 10.0 mi SW 15.0 mph - N/A   Overcast
10:15 AM 50.4 °F - 10.4 °F 20% 30.33 in 10.0 mi WSW 18.4 mph 21.9 mph N/A   Overcast
10:35 AM 52.5 °F - 9.3 °F 18% 30.33 in 10.0 mi WSW 18.4 mph 23.0 mph N/A   Overcast
10:55 AM 55.6 °F - 9.3 °F 16% 30.32 in 10.0 mi WSW 15.0 mph - N/A   Overcast
11:15 AM 57.2 °F - 10.4 °F 16% 30.32 in 10.0 mi WSW 12.7 mph - N/A   Overcast
11:35 AM 60.3 °F - 10.4 °F 14% 30.31 in 10.0 mi SW 13.8 mph - N/A   Overcast
11:55 AM 61.2 °F - 10.9 °F 14% 30.30 in 10.0 mi WSW 11.5 mph - N/A   Scattered Clouds
12:15 PM 61.3 °F - 11.5 °F 14% 30.30 in 10.0 mi WSW 9.2 mph - N/A   Clear
12:35 PM 62.2 °F - 13.5 °F 15% 30.28 in 10.0 mi West 9.2 mph - N/A   Scattered Clouds
12:55 PM 64.0 °F - 15.8 °F 15% 30.27 in 10.0 mi West 11.5 mph 19.6 mph N/A   Scattered Clouds
1:15 PM 64.2 °F - 18.7 °F 17% 30.24 in 10.0 mi West 12.7 mph - N/A   Scattered Clouds
1:35 PM 65.1 °F - 19.4 °F 17% 30.24 in 10.0 mi West 15.0 mph - N/A   Scattered Clouds
1:55 PM 63.3 °F - 17.4 °F 17% 30.22 in 10.0 mi SW 11.5 mph 18.4 mph N/A   Overcast
2:15 PM 66.6 °F - 24.3 °F 20% 30.21 in 10.0 mi West 12.7 mph 26.5 mph N/A   Overcast
2:35 PM 66.2 °F - 26.4 °F 22% 30.20 in 10.0 mi West 13.8 mph 21.9 mph N/A   Overcast
2:55 PM 67.6 °F - 24.4 °F 20% 30.19 in 10.0 mi WSW 16.1 mph - N/A   Overcast
3:15 PM 65.1 °F - 29.1 °F 26% 30.19 in 10.0 mi West 16.1 mph 19.6 mph N/A   Overcast
3:35 PM 64.9 °F - 30.6 °F 28% 30.19 in 10.0 mi WSW 12.7 mph - N/A   Overcast
3:55 PM 65.1 °F - 31.6 °F 29% 30.17 in 10.0 mi West 11.5 mph 18.4 mph N/A   Overcast
4:15 PM 65.5 °F - 32.2 °F 29% 30.17 in 10.0 mi West 11.5 mph - N/A   Overcast
4:35 PM 66.9 °F - 30.7 °F 26% 30.17 in 10.0 mi West 12.7 mph 23.0 mph N/A   Mostly Cloudy
4:55 PM 65.8 °F - 32.2 °F 29% 30.17 in 10.0 mi West 13.8 mph 17.3 mph N/A   Scattered Clouds
5:15 PM 65.3 °F - 31.1 °F 28% 30.17 in 10.0 mi West 11.5 mph - N/A   Clear
5:35 PM 63.0 °F - 29.1 °F 28% 30.17 in 10.0 mi WSW 12.7 mph - N/A   Clear
5:55 PM 63.3 °F - 29.7 °F 28% 30.17 in 10.0 mi WSW 12.7 mph - N/A   Scattered Clouds
6:15 PM 61.3 °F - 29.3 °F 30% 30.17 in 10.0 mi WSW 15.0 mph - N/A   Scattered Clouds
6:35 PM 57.7 °F - 28.2 °F 32% 30.18 in 10.0 mi WSW 9.2 mph - N/A   Clear
6:55 PM 55.9 °F - 28.2 °F 35% 30.18 in 10.0 mi WSW 10.4 mph - N/A   Clear
7:15 PM 54.5 °F - 28.2 °F 36% 30.17 in 10.0 mi WSW 8.1 mph - N/A   Clear
7:35 PM 51.8 °F - 27.9 °F 40% 30.17 in 10.0 mi WSW 10.4 mph - N/A   Clear
7:55 PM 55.2 °F - 29.3 °F 37% 30.17 in 10.0 mi WSW 11.5 mph - N/A   Clear
8:15 PM 51.8 °F - 28.8 °F 41% 30.18 in 10.0 mi WSW 10.4 mph - N/A   Clear
9:15 PM 47.8 °F - 27.5 °F 45% 30.18 in 10.0 mi WSW 10.4 mph - N/A   Clear
9:35 PM 47.5 °F - 26.6 °F 44% 30.17 in 10.0 mi SW 8.1 mph - N/A   Clear
9:55 PM 47.8 °F - 25.7 °F 42% 30.17 in 10.0 mi SW 9.2 mph - N/A   Clear
10:15 PM 49.5 °F - 24.6 °F 38% 30.16 in 10.0 mi SW 9.2 mph - N/A   Clear
10:35 PM 48.2 °F - 24.6 °F 40% 30.16 in 10.0 mi WSW 8.1 mph - N/A   Clear
10:55 PM 51.1 °F - 26.6 °F 39% 30.16 in 10.0 mi WSW 9.2 mph - N/A   Clear
11:15 PM 50.9 °F - 25.7 °F 38% 30.16 in 10.0 mi WSW 10.4 mph - N/A   Clear
11:35 PM 51.1 °F - 25.7 °F 37% 30.15 in 10.0 mi WSW 9.2 mph - N/A   Clear
11:55 PM 50.2 °F - 24.8 °F 37% 30.15 in 10.0 mi SW 11.5 mph - N/A   Clear